Terug naar catalogus

CZ-6A DEB

ActiefSSO
NORAD 56593·DEBRIS·🇨🇳 China

Gelanceerd Nov 11, 2022 vanaf Taiyuan Satellite Launch Center

Loading…

Volgende Passages (komende 24 uur)

TLE

VersSource: Space-Track

Epoch: Sep 14, 2026, 14:12 UTC

1 56593U 22151ADR 26257.59232319  .00001704  00000-0  48572-3 0  9996
2 56593  98.6524 303.9073 0118565 110.4446 250.9521 14.42530230178436

Volg CZ-6A DEB in realtime met AllMySat

Download on the App Store